NQ9F Weather Reports


time (UTC)temp
F
wind
direction
speed
knots
gust
knots
rain 1hr
in
rain 24hr
in
rain mn
in
humidity
%
barometer
mb
20260906221035 98 136 9.6 10.4 0.00 0.00 0.00 40 1011.5
20260906220529 97 153 9.6 15.6 0.00 0.00 0.00 41 1011.5
20260906220024 97 136 7.0 11.3 0.00 0.00 0.00 41 1011.7
20260906215523 97 190 1.7 8.7 0.00 0.00 0.00 41 1011.8
20260906215021 96 124 6.1 8.7 0.00 0.00 0.00 42 1011.8
20260906214520 96 120 6.1 10.4 0.00 0.00 0.00 42 1011.9
20260906214016 97 132 3.5 14.8 0.00 0.00 0.00 41 1012.1
20260906213515 97 117 4.3 13.9 0.00 0.00 0.00 41 1011.9
20260906213010 97 110 13.9 15.6 0.00 0.00 0.00 41 1011.9
20260906212502 96 70 4.3 9.6 0.00 0.00 0.00 42 1012.2
20260906211958 96 83 8.7 13.0 0.00 0.00 0.00 42 1012.3
20260906211452 96 136 4.3 14.8 0.00 0.00 0.00 42 1012.4
20260906210947 97 115 7.0 11.3 0.00 0.00 0.00 41 1012.3
20260906210443 98 156 2.6 10.4 0.00 0.00 0.00 41 1012.6
20260906205936 96 143 12.2 14.8 0.00 0.00 0.00 42 1012.3
20260906205433 98 130 6.1 13.0 0.00 0.00 0.00 41 1012.4
20260906204928 98 127 11.3 13.9 0.00 0.00 0.00 40 1012.5
20260906204428 97 142 11.3 13.9 0.00 0.00 0.00 42 1012.5
20260906203927 96 156 8.7 12.2 0.00 0.00 0.00 43 1012.7
20260906203422 96 153 13.9 17.4 0.00 0.00 0.00 43 1012.6
20260906202920 97 143 14.8 16.5 0.00 0.00 0.00 42 1012.7
20260906202419 95 150 6.1 11.3 0.00 0.00 0.00 44 1012.8
20260906201914 95 101 10.4 15.6 0.00 0.00 0.00 44 1012.9
20260906201408 96 111 3.5 9.6 0.00 0.00 0.00 44 1012.9
20260906200904 96 132 4.3 11.3 0.00 0.00 0.00 42 1012.9
20260906200359 96 148 10.4 13.9 0.00 0.00 0.00 42 1013.1
20260906195854 97 149 11.3 13.0 0.00 0.00 0.00 42 1013.0
20260906195350 96 182 2.6 11.3 0.00 0.00 0.00 43 1013.1
20260906194846 95 48 7.8 13.0 0.00 0.00 0.00 44 1013.0
20260906194342 96 122 7.8 14.8 0.00 0.00 0.00 43 1013.3
20260906193837 95 113 5.2 14.8 0.00 0.00 0.00 43 1013.4
20260906193332 95 156 8.7 16.5 0.00 0.00 0.00 43 1013.2
20260906192828 97 143 12.2 13.0 0.00 0.00 0.00 44 1013.4
20260906192327 96 92 11.3 11.3 0.00 0.00 0.00 43 1013.4
20260906191826 96 161 8.7 16.5 0.00 0.00 0.00 42 1013.5
20260906191316 96 151 7.0 13.9 0.00 0.00 0.00 44 1013.5
20260906190816 96 177 9.6 11.3 0.00 0.00 0.00 43 1013.6
20260906190315 96 118 5.2 20.9 0.00 0.00 0.00 43 1013.4
20260906185815 95 169 2.6 9.6 0.00 0.00 0.00 44 1013.6
20260906185314 97 136 12.2 14.8 0.00 0.00 0.00 43 1013.8
20260906184809 95 163 4.3 6.1 0.00 0.00 0.00 45 1013.6
20260906184304 96 146 7.0 14.8 0.00 0.00 0.00 44 1013.7
20260906183759 95 113 4.3 9.6 0.00 0.00 0.00 44 1013.8
20260906183256 95 121 7.0 13.0 0.00 0.00 0.00 44 1013.7
20260906182755 94 134 9.6 14.8 0.00 0.00 0.00 45 1013.8
20260906182251 95 160 7.8 10.4 0.00 0.00 0.00 45 1013.8
20260906181746 95 102 7.0 8.7 0.00 0.00 0.00 46 1014.0
20260906181242 94 137 4.3 15.6 0.00 0.00 0.00 47 1013.9
20260906180737 95 172 7.0 10.4 0.00 0.00 0.00 47 1014.1
20260906180232 94 99 2.6 8.7 0.00 0.00 0.00 48 1014.2
20260906175730 95 122 13.0 15.6 0.00 0.00 0.00 47 1014.2
20260906175225 93 183 3.5 11.3 0.00 0.00 0.00 49 1014.4
20260906174724 94 131 6.1 7.8 0.00 0.00 0.00 49 1014.7
20260906174218 96 120 6.1 11.3 0.00 0.00 0.00 45 1014.6
20260906173713 94 137 8.7 11.3 0.00 0.00 0.00 46 1014.8
20260906173209 93 142 10.4 18.2 0.00 0.00 0.00 47 1014.7
20260906172703 92 151 6.1 14.8 0.00 0.00 0.00 50 1014.7
20260906172159 93 137 9.6 15.6 0.00 0.00 0.00 49 1014.9
20260906171658 94 121 13.9 18.2 0.00 0.00 0.00 48 1014.8
20260906171154 93 79 4.3 11.3 0.00 0.00 0.00 49 1015.1
20260906170650 93 136 0.9 9.6 0.00 0.00 0.00 50 1015.0
20260906170149 92 156 4.3 13.9 0.00 0.00 0.00 51 1015.1
20260906165646 94 161 4.3 7.0 0.00 0.00 0.00 50 1015.1
20260906165141 93 89 4.3 9.6 0.00 0.00 0.00 50 1015.1
20260906164639 92 119 3.5 13.0 0.00 0.00 0.00 52 1015.1
20260906164135 91 141 4.3 10.4 0.00 0.00 0.00 52 1015.3
20260906163631 92 119 6.1 11.3 0.00 0.00 0.00 51 1015.3
20260906163127 92 156 4.3 8.7 0.00 0.00 0.00 53 1015.2
20260906162624 91 81 6.1 8.7 0.00 0.00 0.00 54 1015.3
20260906162118 91 131 11.3 13.0 0.00 0.00 0.00 54 1015.4
20260906161613 92 145 4.3 11.3 0.00 0.00 0.00 54 1015.2
20260906161112 91 148 2.6 4.3 0.00 0.00 0.00 55 1015.3
20260906160611 92 104 4.3 7.0 0.00 0.00 0.00 54 1015.2
20260906160110 91 149 2.6 8.7 0.00 0.00 0.00 55 1015.3
20260906155608 92 137 2.6 5.2 0.00 0.00 0.00 54 1015.2
20260906155104 91 141 0.9 4.3 0.00 0.00 0.00 58 1015.3
20260906154559 91 71 1.7 6.1 0.00 0.00 0.00 58 1015.5
20260906154057 90 114 2.6 5.2 0.00 0.00 0.00 60 1015.3
20260906153556 90 109 1.7 7.8 0.00 0.00 0.00 61 1015.2
20260906153051 91 33 0.9 1.7 0.00 0.00 0.00 60 1015.1
20260906152550 89 81 2.6 5.2 0.00 0.00 0.00 63 1015.2
20260906152045 90 107 2.6 4.3 0.00 0.00 0.00 61 1015.1
20260906151540 89 50 1.7 2.6 0.00 0.00 0.00 62 1015.0
20260906151036 88 200 2.6 4.3 0.00 0.00 0.00 65 1014.9
20260906150531 89 145 3.5 4.3 0.00 0.00 0.00 63 1014.9
20260906150027 87 223 0.0 5.2 0.00 0.00 0.00 67 1014.8
20260906145525 87 154 0.0 4.3 0.00 0.00 0.00 66 1015.0
20260906145020 87 181 0.9 4.3 0.00 0.00 0.00 67 1014.9
20260906144514 87 36 0.9 4.3 0.00 0.00 0.00 67 1014.9
20260906144010 86 126 3.5 5.2 0.00 0.00 0.00 69 1014.7
20260906143504 85 138 1.7 6.1 0.00 0.00 0.00 70 1015.0
20260906143001 84 135 5.2 5.2 0.00 0.00 0.00 72 1014.7
20260906142454 84 159 4.3 7.0 0.00 0.00 0.00 73 1014.7
20260906141949 83 167 4.3 6.1 0.00 0.00 0.00 73 1014.8
20260906141448 84 151 4.3 6.1 0.00 0.00 0.00 73 1014.8
20260906140944 82 150 5.2 9.6 0.00 0.00 0.00 76 1015.0
20260906140433 82 141 3.5 7.0 0.00 0.00 0.00 76 1015.0
20260906135931 82 146 5.2 9.6 0.00 0.00 0.00 78 1014.9
20260906135430 81 138 3.5 10.4 0.00 0.00 0.00 78 1014.8
20260906134926 81 137 3.5 7.8 0.00 0.00 0.00 78 1014.9
20260906134421 81 130 3.5 7.8 0.00 0.00 0.00 79 1014.8
20260906133916 81 126 5.2 7.8 0.00 0.00 0.00 80 1014.8
20260906133412 80 131 6.1 9.6 0.00 0.00 0.00 81 1014.8
20260906132907 80 136 5.2 7.8 0.00 0.00 0.00 81 1014.9
20260906132402 80 141 5.2 8.7 0.00 0.00 0.00 81 1014.9
20260906131858 79 147 6.1 7.8 0.00 0.00 0.00 82 1014.8
20260906131353 79 150 4.3 7.8 0.00 0.00 0.00 82 1014.6
20260906130849 78 145 5.2 7.8 0.00 0.00 0.00 82 1014.6
20260906130348 78 143 3.5 7.0 0.00 0.00 0.00 83 1014.6
20260906125848 78 134 4.3 7.0 0.00 0.00 0.00 83 1014.4
20260906125345 78 131 3.5 5.2 0.00 0.00 0.00 83 1014.6
20260906124839 78 136 2.6 7.0 0.00 0.00 0.00 83 1014.5
20260906124336 78 134 3.5 6.1 0.00 0.00 0.00 84 1014.6
20260906123835 77 129 3.5 7.0 0.00 0.00 0.00 84 1014.6
20260906123330 77 111 7.0 7.0 0.00 0.00 0.00 85 1014.4
20260906122829 77 134 5.2 7.8 0.00 0.00 0.00 85 1014.6
20260906122324 77 129 6.1 7.8 0.00 0.00 0.00 85 1014.8
20260906121821 77 133 4.3 7.0 0.00 0.00 0.00 85 1014.4
20260906121317 77 134 4.3 7.8 0.00 0.00 0.00 85 1014.3
20260906120813 77 125 3.5 7.0 0.00 0.00 0.00 85 1014.2
20260906120309 77 119 5.2 6.1 0.00 0.00 0.00 85 1013.9
20260906115805 77 123 2.6 6.1 0.00 0.00 0.00 85 1014.0
20260906115300 77 126 4.3 4.3 0.00 0.00 0.00 85 1013.9
20260906114759 77 122 2.6 4.3 0.00 0.00 0.00 84 1013.7
20260906114254 77 129 2.6 4.3 0.00 0.00 0.00 85 1014.0
20260906113749 77 141 1.7 2.6 0.00 0.00 0.00 85 1014.0
20260906113249 77 110 1.7 3.5 0.00 0.00 0.00 85 1013.9
20260906112748 77 112 1.7 5.2 0.00 0.00 0.00 85 1013.8
20260906112245 77 122 3.5 6.1 0.00 0.00 0.00 85 1013.9
20260906111739 77 126 1.7 6.1 0.00 0.00 0.00 85 1013.8
20260906111233 77 111 2.6 6.1 0.00 0.00 0.00 85 1013.7
20260906110728 78 127 2.6 5.2 0.00 0.00 0.00 84 1013.7
20260906110224 78 146 4.3 6.1 0.00 0.00 0.00 84 1013.8
20260906105723 78 137 3.5 5.2 0.00 0.00 0.00 84 1013.8
20260906105219 77 116 0.0 2.6 0.00 0.00 0.00 84 1013.7
20260906104719 78 124 0.9 2.6 0.00 0.00 0.00 84 1013.7
20260906104218 78 123 1.7 3.5 0.00 0.00 0.00 84 1013.4
20260906103716 78 114 2.6 3.5 0.00 0.00 0.00 84 1013.4
20260906103211 78 132 3.5 5.2 0.00 0.00 0.00 84 1013.6
20260906102706 78 117 2.6 5.2 0.00 0.00 0.00 84 1013.5
20260906102205 78 140 2.6 5.2 0.00 0.00 0.00 84 1013.5
20260906101700 78 127 2.6 4.3 0.00 0.00 0.00 84 1013.5
20260906101155 78 142 2.6 5.2 0.00 0.00 0.00 84 1013.5
20260906100650 78 129 1.7 4.3 0.00 0.00 0.00 84 1013.3
20260906100145 78 127 3.5 4.3 0.00 0.00 0.00 83 1013.4
20260906095640 78 132 4.3 5.2 0.00 0.00 0.00 83 1013.5
20260906095135 78 134 1.7 4.3 0.00 0.00 0.00 83 1013.3
20260906094634 78 112 1.7 4.3 0.00 0.00 0.00 83 1013.4
20260906094130 78 133 1.7 4.3 0.00 0.00 0.00 83 1013.4
20260906093626 78 114 1.7 3.5 0.00 0.00 0.00 83 1013.4
20260906093120 78 94 1.7 3.5 0.00 0.00 0.00 82 1013.3
20260906092615 78 66 1.7 2.6 0.00 0.00 0.00 83 1013.2
20260906092110 78 48 0.0 1.7 0.00 0.00 0.00 82 1013.1
20260906091606 78 351 1.7 1.7 0.00 0.00 0.00 82 1012.8
20260906091103 78 338 0.9 1.7 0.00 0.00 0.00 82 1013.1
20260906090557 78 331 1.7 2.6 0.00 0.00 0.00 81 1012.7
20260906090057 79 227 0.0 1.7 0.00 0.00 0.00 81 1012.8
20260906085556 79 195 0.9 2.6 0.00 0.00 0.00 81 1012.8
20260906085051 79 161 3.5 4.3 0.00 0.00 0.00 80 1012.8
20260906084545 79 158 3.5 6.1 0.00 0.00 0.00 80 1012.9
20260906084044 79 145 3.5 6.1 0.00 0.00 0.00 80 1012.9
20260906083540 80 145 8.7 8.7 0.00 0.00 0.00 79 1012.9
20260906083039 80 150 3.5 7.0 0.00 0.00 0.00 79 1012.8
20260906082535 80 156 3.5 7.0 0.00 0.00 0.00 78 1012.7
20260906082031 80 155 3.5 6.1 0.00 0.00 0.00 78 1012.8
20260906081526 80 145 3.5 8.7 0.00 0.00 0.00 78 1012.6
20260906081021 80 157 6.1 8.7 0.00 0.00 0.00 77 1012.5
20260906080518 80 160 3.5 8.7 0.00 0.00 0.00 77 1012.7
20260906080014 80 158 5.2 10.4 0.00 0.00 0.00 77 1012.7
20260906075508 80 153 5.2 7.8 0.00 0.00 0.00 77 1012.8
20260906075002 80 162 6.1 8.7 0.00 0.00 0.00 77 1013.0
20260906074457 80 148 4.3 8.7 0.00 0.00 0.00 77 1013.2
20260906073955 81 160 5.2 8.7 0.00 0.00 0.00 76 1013.0
20260906073450 81 149 6.1 7.0 0.00 0.00 0.00 76 1013.1
20260906072947 81 149 5.2 7.0 0.00 0.00 0.00 76 1013.2
20260906072442 81 150 5.2 7.0 0.00 0.00 0.00 76 1013.2
20260906071938 81 150 4.3 7.0 0.00 0.00 0.00 75 1013.1
20260906071434 82 159 4.3 7.8 0.00 0.00 0.00 75 1013.2
20260906070929 82 164 2.6 7.8 0.00 0.00 0.00 74 1013.0
20260906070425 82 161 5.2 8.7 0.00 0.00 0.00 74 1012.9
20260906065921 82 158 6.1 7.8 0.00 0.00 0.00 74 1012.9
20260906065415 82 151 4.3 8.7 0.00 0.00 0.00 74 1013.0
20260906064910 82 169 3.5 8.7 0.00 0.00 0.00 73 1013.2
20260906064407 82 168 3.5 7.8 0.00 0.00 0.00 73 1013.2
20260906063901 82 167 5.2 8.7 0.00 0.00 0.00 73 1013.4
20260906063356 82 161 5.2 7.0 0.00 0.00 0.00 73 1013.2
20260906062851 83 168 3.5 7.0 0.00 0.00 0.00 72 1012.9
20260906062350 83 169 3.5 7.0 0.00 0.00 0.00 72 1013.2
20260906061846 83 162 3.5 6.1 0.00 0.00 0.00 72 1013.4
20260906061342 83 168 4.3 7.0 0.00 0.00 0.00 72 1013.3
20260906060837 83 155 5.2 8.7 0.00 0.00 0.00 72 1013.4
20260906060335 83 160 4.3 7.8 0.00 0.00 0.00 72 1013.5
20260906055830 83 147 7.0 9.6 0.00 0.00 0.00 71 1013.5
20260906055326 83 173 7.0 8.7 0.00 0.00 0.00 71 1013.6
20260906054821 83 161 3.5 7.0 0.00 0.00 0.00 71 1013.5
20260906054316 83 152 6.1 7.8 0.00 0.00 0.00 70 1013.7
20260906053812 84 159 5.2 7.8 0.00 0.00 0.00 70 1013.5
20260906053308 84 180 2.6 7.0 0.00 0.00 0.00 69 1013.6
20260906052802 84 170 4.3 7.8 0.00 0.00 0.00 69 1013.3
20260906052259 84 159 8.7 8.7 0.00 0.00 0.00 69 1013.6
20260906051755 84 158 4.3 7.8 0.00 0.00 0.00 68 1013.4
20260906051249 84 162 5.2 7.8 0.00 0.00 0.00 68 1013.5
20260906050744 84 162 5.2 7.0 0.00 0.00 0.00 67 1013.3
20260906050240 85 157 6.1 7.0 0.00 0.00 0.00 67 1013.6
20260906045738 85 162 4.3 7.8 0.00 0.00 0.00 66 1013.7
20260906045233 85 166 3.5 7.0 0.00 0.00 0.00 66 1013.6
20260906044729 85 170 4.3 6.1 0.00 0.00 0.00 65 1013.5
20260906044224 85 182 2.6 5.2 0.00 0.00 0.00 65 1013.5
20260906043720 85 178 3.5 5.2 0.00 0.00 0.00 65 1013.2
20260906043216 85 166 3.5 5.2 0.00 0.00 0.00 65 1013.4
20260906042715 85 164 4.3 4.3 0.00 0.00 0.00 65 1013.5
20260906042209 85 168 2.6 4.3 0.00 0.00 0.00 64 1013.5
20260906041704 86 154 2.6 5.2 0.00 0.00 0.00 64 1013.3
20260906041159 86 142 5.2 7.0 0.00 0.00 0.00 64 1013.3
20260906040655 86 162 2.6 7.8 0.00 0.00 0.00 63 1013.4
20260906040150 86 144 4.3 7.0 0.00 0.00 0.00 63 1013.4
20260906035645 86 149 6.1 7.0 0.00 0.00 0.00 62 1013.3
20260906035141 86 150 4.3 6.1 0.00 0.00 0.00 62 1013.2
20260906034636 87 141 6.1 7.0 0.00 0.00 0.00 61 1013.4
20260906034130 87 156 4.3 7.8 0.00 0.00 0.00 61 1013.3
20260906033626 87 147 6.1 7.8 0.00 0.00 0.00 60 1013.4
20260906033120 87 146 5.2 7.8 0.00 0.00 0.00 60 1013.3
20260906032618 87 146 4.3 7.8 0.00 0.00 0.00 59 1013.3
20260906032117 87 153 3.5 7.8 0.00 0.00 0.00 59 1013.3
20260906031612 88 142 3.5 8.7 0.00 0.00 0.00 58 1013.2
20260906031108 88 160 7.0 8.7 0.00 0.00 0.00 58 1013.2
20260906030607 88 150 7.0 9.6 0.00 0.00 0.00 57 1013.3
20260906025602 88 150 6.1 9.6 0.00 0.00 0.00 56 1013.2
20260906025100 89 162 7.0 7.8 0.00 0.00 0.00 55 1013.1
20260906024555 89 138 5.2 10.4 0.00 0.00 0.00 54 1013.1
20260906024050 89 158 3.5 13.9 0.00 0.00 0.00 54 1013.0
20260906023546 90 129 6.1 13.9 0.00 0.00 0.00 51 1012.7
20260906023040 90 123 2.6 6.1 0.00 0.00 0.00 49 1012.5
20260906022535 91 149 1.7 4.3 0.00 0.00 0.00 49 1012.5
20260906022031 91 137 2.6 6.1 0.00 0.00 0.00 48 1012.4
20260906021526 91 127 3.5 4.3 0.00 0.00 0.00 48 1012.4
20260906021020 91 103 1.7 6.1 0.00 0.00 0.00 48 1012.4
20260906020520 91 118 2.6 4.3 0.00 0.00 0.00 48 1012.3
20260906020019 91 125 2.6 5.2 0.00 0.00 0.00 48 1012.1
20260906015518 91 107 2.6 5.2 0.00 0.00 0.00 48 1012.2
20260906015018 91 127 1.7 5.2 0.00 0.00 0.00 48 1011.9
20260906014513 91 105 2.6 4.3 0.00 0.00 0.00 47 1011.8
20260906014009 91 128 1.7 3.5 0.00 0.00 0.00 47 1011.9
20260906013504 92 120 2.6 5.2 0.00 0.00 0.00 46 1011.7
20260906013000 92 117 1.7 4.3 0.00 0.00 0.00 46 1011.9
20260906012455 92 104 3.5 6.1 0.00 0.00 0.00 46 1011.6
20260906011954 92 114 2.6 3.5 0.00 0.00 0.00 45 1011.6
20260906011450 93 112 1.7 2.6 0.00 0.00 0.00 45 1011.6
20260906010944 93 132 0.9 4.3 0.00 0.00 0.00 45 1011.8
20260906010439 93 100 0.9 5.2 0.00 0.00 0.00 44 1011.4
20260906005936 93 134 4.3 5.2 0.00 0.00 0.00 44 1011.6
20260906005430 94 123 3.5 4.3 0.00 0.00 0.00 43 1011.4
20260906004928 94 155 0.0 3.5 0.00 0.00 0.00 43 1011.4
20260906004423 94 149 0.0 3.5 0.00 0.00 0.00 43 1011.4
20260906003918 95 117 0.0 5.2 0.00 0.00 0.00 42 1011.5
20260906003413 95 122 2.6 4.3 0.00 0.00 0.00 42 1011.6
20260906002909 96 143 2.6 3.5 0.00 0.00 0.00 41 1011.4
20260906002408 96 158 1.7 4.3 0.00 0.00 0.00 41 1011.5
20260906001904 96 114 2.6 4.3 0.00 0.00 0.00 41 1011.4
20260906001400 96 144 5.2 6.1 0.00 0.00 0.00 41 1011.4
20260906000859 96 94 1.7 7.0 0.00 0.00 0.00 41 1011.4
20260906000356 97 133 2.6 6.1 0.00 0.00 0.00 40 1011.3
20260905235849 97 275 0.0 3.5 0.00 0.00 0.00 40 1011.2
20260905235343 96 117 3.5 6.1 0.00 0.00 0.00 40 1011.4
20260905234838 97 101 7.0 8.7 0.00 0.00 0.00 40 1011.4
20260905234334 97 157 0.0 5.2 0.00 0.00 0.00 40 1011.2
20260905233829 97 144 3.5 10.4 0.00 0.00 0.00 40 1011.3
20260905233324 97 176 3.5 9.6 0.00 0.00 0.00 40 1011.4
20260905232823 97 115 3.5 8.7 0.00 0.00 0.00 40 1011.2
20260905232319 97 74 2.6 6.1 0.00 0.00 0.00 40 1011.2
20260905231815 97 105 2.6 6.1 0.00 0.00 0.00 40 1011.3
20260905231310 97 144 3.5 7.0 0.00 0.00 0.00 39 1011.2
20260905230806 98 155 3.5 6.1 0.00 0.00 0.00 39 1011.2
20260905230304 97 161 4.3 9.6 0.00 0.00 0.00 40 1011.1
20260905225803 97 125 8.7 9.6 0.00 0.00 0.00 40 1011.2
20260905225259 97 147 4.3 8.7 0.00 0.00 0.00 40 1011.1
20260905224758 98 110 5.2 7.0 0.00 0.00 0.00 38 1011.2
20260905224254 97 61 2.6 10.4 0.00 0.00 0.00 39 1011.1
20260905223749 98 137 6.1 8.7 0.00 0.00 0.00 37 1011.0
20260905223246 97 157 4.3 8.7 0.00 0.00 0.00 38 1011.4
20260905222741 98 140 4.3 9.6 0.00 0.00 0.00 37 1011.3
20260905222240 99 60 0.9 5.2 0.00 0.00 0.00 36 1011.2
20260905221736 98 200 4.3 7.8 0.00 0.00 0.00 37 1011.1